Regional Weather Roundup
Issued by NWS Sioux Falls, SD

Home | Current Version | Previous Version | Graphics & Text | Print | Product List | Glossary On
Versions: 1 2 3 4 5 6 7 8 9 10 11 12 13 14 15 16 17 18 19 20 21 22 23 24 25 26 27 28 29 30 31 32 33 34 35 36 37 38 39 40 41 42 43 44 45 46 47 48 49 50
000
ASUS43 KFSD 231810
RWRFSD

WEATHER ROUNDUP FOR SE SOUTH DAKOTA/SW MINNESOTA/NW IOWA
NATIONAL WEATHER SERVICE SIOUX FALLS SD
100 PM CDT TUE AUG 23 2016

NOTE: "FAIR" INDICATES FEW OR NO CLOUDS BELOW 12,000 FEET WITH NO
SIGNIFICANT WEATHER AND OR OBSTRUCTIONS TO VISIBILITY.


SDZ038>040-050-052>070-231900-
SOUTHEAST SOUTH DAKOTA

CITY           SKY/WX    TMP DP  RH WIND       PRES   REMARKS
BROOKINGS      CLOUDY    76  67  73 S16G23    29.83R
CHAMBERLAIN    SUNNY     87  69  54 S17       29.73F
6HR MIN TEMP:  72; 6HR MAX TEMP:  87;

HURON          SUNNY     82  64  54 S24G38    29.73F
6HR MIN TEMP:  66; 6HR MAX TEMP:  83;

MADISON        FAIR      72  68  88 S21G28    29.84S
MITCHELL       SUNNY     82  65  56 S17G25    29.78S
6HR MIN TEMP:  65; 6HR MAX TEMP:  82;

SIOUX FALLS    CLOUDY    72  69  90 S16       29.85S
6HR MIN TEMP:  68; 6HR MAX TEMP:  75; 6HR PCP: TRACE;

WINNER         FAIR      88  62  41 SW13      29.75S
YANKTON        CLOUDY    70  64  83 SE12      29.82S
$$

MNZ071-072-080-081-089-090-097-098-231900-
SOUTHWEST MINNESOTA

CITY           SKY/WX    TMP DP  RH WIND       PRES   REMARKS
JACKSON        CLOUDY    77  66  69 S13       29.92F
LUVERNE        RAIN      70  64  83 S13G24    29.87F
MARSHALL       MOSUNNY   79  69  71 S20       29.84F
6HR MIN TEMP:  67; 6HR MAX TEMP:  79;

MONTEVIDEO     MOSUNNY   82  70  65 SW18      29.84F
PIPESTONE      CLOUDY    73  66  78 S15G22    29.87S
REDWOOD FALLS  PTSUNNY   80  68  66 S22       29.86F
TRACY          CLOUDY    79  71  75 S15G25    29.87S
WINDOM         CLOUDY    79  68  69 S10       29.90S
WORTHINGTON    CLOUDY    75  69  81 S15G23    29.91S
$$

IAZ001>003-012>014-020>022-031-032-NEZ013-014-SDZ071-231900-
NORTHWEST IOWA

CITY           SKY/WX    TMP DP  RH WIND       PRES   REMARKS
CHEROKEE       CLOUDY    75  71  87 S10       29.90F
DENISON        CLOUDY    73  68  83 S17G25    29.93R
ESTHERVILLE    CLOUDY    77  71  82 S15       29.92F
LE MARS        CLOUDY    72  68  88 S7        29.91S
ORANGE CITY    RAIN      72  70  94 S3        29.90F
SHELDON        LGT RAIN  72  70  94 S7        29.89F
SIOUX CITY     TSTM      65  63  93 N14G37    29.92R VSB 1/4
6HR MIN TEMP:  65; 6HR MAX TEMP:  74; 6HR PCP: TRACE;

SPENCER        CLOUDY    77  69  76 SE14      29.91F
6HR MIN TEMP:  62; 6HR MAX TEMP:  78;

STORM LAKE     CLOUDY    77  72  83 S14G21    29.93F
$$

ABBREVIATIONS USED IN REMARKS
   TC - TEMPERATURE IN CELSIUS
  WCI - WIND CHILL INDEX
   HX - HEAT INDEX
  VSB - VISIBILITY





USA.gov is the U.S. government's official web portal to all federal, state and local government web resources and services.